Precipitable_Water
1.41 1.56 1.61 1.59 1.58 1.49 1.34 1.13 1.07 1.03 1.04 1.17 1.30 1.34 1.20 1.26 1.36 1.44 1.50 1.42 1.39 1.20 1.05 1.00 1.01 0.92 0.95 1.10 1.08 1.05 0.95 0.88 0.96 1.07 1.20 1.27 1.23 1.14 1.09 1.07 1.02 1.04 1.01
1.50 1.61 1.70 1.71 1.71 1.60 1.46 1.20 1.06 1.05 1.10 1.27 1.41 1.45 1.31 1.32 1.51 1.59 1.55 1.46 1.43 1.29 1.19 1.13 1.14 1.06 0.93 0.93 0.97 0.97 0.94 0.90 0.89 0.91 1.06 1.17 1.21 1.14 1.14 1.05 1.00 1.03 1.03
1.48 1.66 1.70 1.69 1.70 1.63 1.56 1.49 1.28 1.14 1.17 1.25 1.35 1.51 1.58 1.44 1.47 1.62 1.69 1.56 1.47 1.35 1.23 1.17 1.14 1.10 1.02 0.97 0.92 0.90 0.94 0.97 0.98 0.99 0.96 1.01 1.15 1.17 1.23 1.15 1.07 1.15 1.11
1.56 1.67 1.66 1.67 1.67 1.66 1.66 1.62 1.52 1.42 1.26 1.22 1.33 1.39 1.52 1.60 1.51 1.52 1.63 1.64 1.56 1.46 1.32 1.29 1.20 1.10 1.12 1.07 1.03 0.98 1.03 1.03 0.99 1.01 1.02 0.98 0.99 1.10 1.24 1.22 1.09 1.03 1.04
1.53 1.65 1.68 1.75 1.71 1.67 1.69 1.65 1.61 1.53 1.44 1.38 1.27 1.20 1.27 1.45 1.54 1.51 1.56 1.61 1.57 1.48 1.32 1.29 1.26 1.19 1.08 1.04 1.07 1.07 1.10 1.13 1.07 1.08 1.06 1.02 1.02 1.05 1.15 1.26 1.13 1.05 1.04
1.41 1.55 1.68 1.68 1.64 1.62 1.62 1.60 1.57 1.60 1.57 1.53 1.50 1.46 1.40 1.39 1.40 1.44 1.53 1.59 1.58 1.52 1.42 1.34 1.30 1.27 1.17 1.05 1.02 1.07 1.14 1.19 1.17 1.15 1.13 1.10 1.09 1.16 1.15 1.14 1.14 1.11 1.06
1.41 1.51 1.57 1.58 1.59 1.59 1.61 1.54 1.52 1.57 1.57 1.56 1.56 1.54 1.51 1.48 1.47 1.42 1.40 1.46 1.47 1.46 1.41 1.39 1.34 1.34 1.33 1.22 1.06 1.00 1.06 1.16 1.24 1.19 1.15 1.16 1.15 1.23 1.23 1.15 1.16 1.14 1.12
1.37 1.44 1.49 1.50 1.44 1.44 1.43 1.40 1.42 1.45 1.45 1.47 1.50 1.52 1.54 1.51 1.48 1.47 1.46 1.45 1.44 1.42 1.37 1.37 1.37 1.36 1.37 1.34 1.26 1.14 1.06 1.06 1.14 1.17 1.19 1.24 1.24 1.27 1.26 1.22 1.13 1.12 1.13
1.35 1.31 1.27 1.23 1.19 1.19 1.17 1.14 1.15 1.17 1.18 1.26 1.34 1.40 1.42 1.44 1.42 1.43 1.43 1.45 1.46 1.44 1.41 1.41 1.41 1.43 1.43 1.44 1.40 1.32 1.19 1.10 1.08 1.14 1.14 1.17 1.26 1.30 1.39 1.31 1.23 1.14 1.10
1.12 1.06 1.00 0.99 0.93 0.91 0.91 0.93 0.92 0.93 0.94 0.95 0.99 1.06 1.12 1.24 1.31 1.32 1.34 1.33 1.33 1.40 1.42 1.47 1.49 1.50 1.51 1.49 1.47 1.43 1.36 1.25 1.14 1.10 1.18 1.21 1.23 1.28 1.31 1.35 1.30 1.26 1.17
0.83 0.83 0.84 0.83 0.83 0.83 0.84 0.83 0.81 0.78 0.77 0.76 0.74 0.75 0.76 0.82 0.93 0.97 1.04 1.15 1.17 1.23 1.28 1.37 1.47 1.51 1.54 1.54 1.53 1.48 1.44 1.39 1.28 1.14 1.11 1.18 1.22 1.25 1.33 1.40 1.30 1.28 1.29
0.70 0.74 0.76 0.75 0.72 0.71 0.69 0.67 0.63 0.58 0.54 0.51 0.49 0.46 0.45 0.45 0.47 0.50 0.55 0.73 0.91 0.93 1.04 1.20 1.31 1.42 1.48 1.45 1.45 1.46 1.48 1.47 1.40 1.33 1.24 1.12 1.15 1.23 1.30 1.41 1.46 1.30 1.21
0.63 0.65 0.65 0.63 0.59 0.54 0.48 0.45 0.42 0.40 0.39 0.39 0.39 0.39 0.39 0.39 0.39 0.40 0.41 0.44 0.47 0.56 0.65 0.83 1.04 1.25 1.33 1.36 1.36 1.37 1.45 1.48 1.45 1.47 1.45 1.35 1.21 1.16 1.25 1.34 1.43 1.47 1.31
0.50 0.49 0.48 0.46 0.43 0.40 0.38 0.36 0.36 0.36 0.37 0.36 0.38 0.40 0.40 0.40 0.40 0.41 0.41 0.43 0.45 0.47 0.48 0.52 0.58 0.72 0.86 0.97 1.16 1.25 1.35 1.37 1.42 1.50 1.52 1.49 1.43 1.35 1.25 1.34 1.36 1.45 1.42
0.42 0.42 0.41 0.41 0.38 0.37 0.36 0.37 0.38 0.39 0.41 0.44 0.45 0.46 0.46 0.43 0.41 0.42 0.42 0.43 0.45 0.47 0.47 0.46 0.48 0.52 0.57 0.65 0.76 0.87 1.08 1.20 1.28 1.40 1.49 1.51 1.52 1.46 1.41 1.41 1.40 1.43 1.46
0.39 0.38 0.39 0.38 0.38 0.39 0.39 0.41 0.43 0.46 0.49 0.50 0.52 0.53 0.53 0.52 0.50 0.48 0.48 0.49 0.50 0.52 0.53 0.52 0.51 0.51 0.51 0.55 0.58 0.65 0.70 0.80 0.99 1.20 1.30 1.37 1.45 1.52 1.56 1.52 1.49 1.52 1.52
0.36 0.37 0.36 0.37 0.40 0.40 0.42 0.45 0.47 0.50 0.53 0.53 0.55 0.57 0.58 0.59 0.59 0.59 0.59 0.59 0.60 0.61 0.60 0.59 0.56 0.56 0.53 0.53 0.52 0.52 0.54 0.57 0.62 0.69 0.86 1.06 1.25 1.40 1.50 1.58 1.54 1.54 1.60
0.37 0.36 0.38 0.40 0.41 0.43 0.45 0.49 0.51 0.54 0.54 0.54 0.54 0.54 0.55 0.56 0.58 0.58 0.59 0.60 0.63 0.64 0.63 0.62 0.61 0.59 0.58 0.57 0.56 0.56 0.55 0.54 0.52 0.52 0.57 0.68 0.83 1.09 1.24 1.42 1.56 1.59 1.57
0.36 0.37 0.38 0.42 0.43 0.46 0.50 0.53 0.54 0.53 0.51 0.48 0.48 0.48 0.51 0.52 0.52 0.51 0.51 0.53 0.55 0.55 0.55 0.54 0.51 0.51 0.49 0.53 0.56 0.57 0.58 0.60 0.63 0.66 0.60 0.54 0.56 0.63 0.87 1.18 1.34 1.51 1.60
0.39 0.41 0.43 0.46 0.48 0.50 0.52 0.53 0.50 0.47 0.46 0.46 0.48 0.52 0.55 0.58 0.61 0.64 0.65 0.64 0.64 0.61 0.61 0.63 0.65 0.65 0.59 0.57 0.55 0.54 0.57 0.58 0.60 0.60 0.63 0.68 0.66 0.60 0.59 0.69 1.08 1.24 1.49
0.39 0.42 0.45 0.46 0.48 0.51 0.50 0.46 0.44 0.41 0.41 0.48 0.55 0.60 0.63 0.65 0.66 0.66 0.66 0.67 0.68 0.67 0.67 0.64 0.58 0.52 0.48 0.55 0.51 0.49 0.50 0.55 0.57 0.60 0.65 0.70 0.73 0.78 0.77 0.70 0.73 1.01 1.23
0.39 0.44 0.47 0.48 0.52 0.55 0.53 0.48 0.44 0.39 0.47 0.57 0.61 0.63 0.67 0.68 0.69 0.67 0.67 0.68 0.67 0.60 0.58 0.56 0.53 0.48 0.49 0.53 0.44 0.44 0.36 0.41 0.54 0.58 0.67 0.74 0.76 0.79 0.77 0.79 0.85 0.82 0.92
0.42 0.47 0.50 0.53 0.57 0.55 0.49 0.44 0.38 0.43 0.58 0.57 0.59 0.61 0.65 0.69 0.68 0.68 0.67 0.63 0.61 0.59 0.55 0.53 0.55 0.53 0.45 0.51 0.52 0.46 0.38 0.37 0.45 0.58 0.61 0.73 0.78 0.82 0.85 0.88 0.89 0.87 0.92
0.46 0.51 0.52 0.56 0.53 0.50 0.47 0.38 0.34 0.47 0.52 0.57 0.58 0.60 0.63 0.66 0.67 0.67 0.65 0.63 0.62 0.61 0.58 0.58 0.59 0.55 0.53 0.46 0.51 0.56 0.57 0.55 0.43 0.42 0.64 0.69 0.79 0.81 0.84 0.87 0.91 0.98 1.01
0.45 0.46 0.53 0.54 0.54 0.52 0.45 0.38 0.38 0.55 0.62 0.60 0.58 0.58 0.62 0.65 0.66 0.66 0.66 0.65 0.65 0.66 0.65 0.63 0.59 0.55 0.58 0.54 0.53 0.52 0.54 0.57 0.60 0.55 0.51 0.62 0.74 0.83 0.84 0.88 0.88 0.96 1.01
0.47 0.53 0.56 0.58 0.57 0.53 0.44 0.39 0.41 0.61 0.61 0.58 0.56 0.57 0.61 0.63 0.65 0.65 0.65 0.67 0.68 0.68 0.65 0.64 0.62 0.57 0.58 0.58 0.59 0.59 0.58 0.55 0.57 0.60 0.60 0.68 0.72 0.78 0.84 0.87 0.84 0.86 1.06
Wind_Speed
5 5 4 3 4 4 5 5 5 5 5 5 5 5 5 4 4 4 4 6 7 8 8 8 8 6 5 4 4 4 4 3 3 3 3 3 3 4 4 4 4 5 5
6 5 4 3 3 4 4 5 5 4 5 5 5 5 6 5 4 5 5 5 6 7 7 8 7 7 6 5 5 5 5 4 4 4 5 5 5 5 5 4 5 5 5
7 5 4 3 2 3 4 4 5 4 4 4 5 5 6 6 5 5 5 5 6 7 7 7 7 7 7 6 6 5 5 5 6 7 7 7 7 6 6 6 5 5 6
6 5 3 2 2 2 2 3 4 4 4 4 5 5 6 6 6 6 6 6 7 7 8 8 8 8 8 7 7 7 6 6 7 9 9 8 8 8 8 7 7 7 7
5 4 3 2 1 0 1 2 3 4 4 5 6 6 7 7 7 7 8 7 8 8 9 9 9 9 9 9 9 9 9 8 9 9 8 9 9 9 9 9 8 8 8
4 4 2 2 1 2 3 4 5 5 6 7 7 8 8 9 9 10 10 10 10 10 10 10 10 10 10 10 10 10 11 11 11 11 11 11 11 10 10 10 10 10 10
4 3 2 2 2 3 4 5 6 7 8 9 10 10 11 11 12 12 13 12 13 13 13 13 13 13 13 13 13 12 12 13 12 13 13 14 14 14 13 13 13 12 11
4 3 2 3 4 5 6 7 8 9 10 11 12 13 14 14 15 15 15 15 16 16 16 17 17 16 16 16 15 15 15 15 15 15 15 15 15 15 15 15 14 14 13
5 4 4 5 6 7 8 9 10 12 13 14 15 16 16 17 17 18 18 18 18 19 19 19 19 19 19 19 18 18 18 17 17 17 17 16 16 16 16 16 16 15 15
6 5 6 6 8 9 10 12 13 14 15 15 16 17 17 18 18 18 19 19 19 20 20 20 20 20 20 20 20 20 20 21 20 20 20 20 19 19 18 18 17 16 16
6 6 7 9 10 12 13 14 15 15 16 16 17 17 18 18 18 19 19 20 20 20 21 21 21 21 21 21 22 22 22 22 22 23 23 23 23 22 22 21 20 19 19
7 8 10 11 13 14 15 15 15 16 16 17 18 19 19 20 20 21 21 21 22 22 22 23 24 25 25 25 25 25 25 25 25 25 25 25 25 25 24 24 24 23 22
10 11 12 14 15 15 16 16 16 17 18 20 20 21 22 23 23 23 23 24 24 24 25 25 26 26 26 27 28 28 28 29 28 28 28 28 27 27 27 26 26 26 25
12 13 14 15 16 16 17 18 18 19 20 21 22 23 24 24 25 25 25 26 26 27 27 28 28 29 30 30 31 31 31 31 31 32 31 31 30 30 30 29 29 28 27
14 15 16 17 17 18 18 19 20 21 22 23 24 25 25 26 26 27 28 28 29 29 30 31 31 32 33 33 34 34 34 34 34 34 34 34 34 33 34 33 32 31 30
16 17 18 19 19 19 20 20 21 23 23 24 25 26 27 27 28 29 29 30 31 31 32 33 33 34 34 35 36 36 36 37 37 37 36 37 37 37 36 36 36 35 33
18 19 19 20 20 21 21 22 23 24 25 26 27 28 28 29 30 30 31 31 32 32 33 33 34 34 34 34 35 36 37 38 38 39 40 39 39 39 40 40 39 39 37
19 20 20 21 21 22 23 23 25 26 27 28 29 30 30 31 32 31 31 31 31 31 32 32 33 33 34 35 36 37 37 38 39 40 41 42 43 42 42 41 42 42 42
20 21 21 22 22 23 24 25 26 28 29 30 31 31 32 31 31 30 30 30 31 30 31 31 32 32 34 35 35 34 35 35 37 38 40 41 43 44 45 44 44 43 47
21 22 22 23 23 24 25 27 28 29 30 31 32 32 31 31 31 30 30 30 29 29 28 28 28 28 27 27 28 29 30 30 33 35 37 40 42 44 45 46 46 45 46
22 23 23 24 25 25 27 28 30 31 32 31 31 31 30 29 29 29 28 27 26 26 25 24 23 23 23 24 24 26 27 28 29 32 35 36 37 40 43 46 47 47 46
23 24 24 26 26 28 29 30 30 30 30 30 29 28 27 26 25 23 22 21 21 20 19 19 20 20 20 23 24 25 23 26 25 31 33 34 36 37 39 41 44 47 47
24 25 27 28 28 29 29 29 29 29 28 27 26 25 24 22 21 20 19 17 16 17 17 18 18 19 21 22 22 21 23 24 30 28 33 32 34 34 34 35 38 41 44
26 27 27 27 28 28 28 28 27 27 26 25 24 22 20 19 18 17 15 14 15 15 15 16 18 19 19 19 20 20 24 27 28 31 29 29 27 28 30 30 31 33 36
26 26 27 27 28 28 27 26 26 26 25 23 22 20 18 16 15 14 13 13 13 14 15 16 17 18 18 18 20 21 23 25 27 29 28 25 25 23 24 24 23 25 27
26 27 27 27 27 26 26 25 25 25 23 22 20 18 16 14 12 12 12 12 13 14 15 16 17 17 17 18 20 20 21 23 25 27 27 24 23 21 21 21 21 21 20
Wind_Direction
156 145 126 100 76 63 57 53 52 48 47 45 42 35 27 19 11 2 358 0 4 8 10 13 15 11 356 341 332 327 328 326 320 326 334 334 326 329 330 331 344 354 1
155 149 136 114 85 69 59 53 51 48 44 39 34 29 25 17 7 355 347 349 352 354 358 360 2 2 359 345 328 316 313 312 306 304 300 305 307 312 314 314 317 327 335
158 152 142 127 97 76 60 51 47 41 34 29 22 17 10 3 358 351 336 337 342 345 345 345 343 343 342 338 332 322 310 302 296 298 299 292 294 296 297 301 304 309 314
152 156 150 138 111 84 56 38 29 24 17 9 3 358 357 355 344 343 337 331 331 335 336 335 333 329 325 324 320 313 305 302 300 299 289 289 289 290 286 289 295 299 300
159 158 163 172 168 30 350 346 342 343 343 343 340 336 335 335 334 326 322 316 317 322 326 326 325 324 320 315 309 302 295 296 298 297 292 286 288 289 281 282 289 292 294
169 170 172 191 234 282 300 307 314 315 314 316 319 322 322 322 320 318 310 304 303 305 309 311 312 313 313 312 309 302 293 290 292 290 291 284 281 283 285 279 283 286 288
175 183 207 237 273 293 301 303 305 306 305 306 307 308 309 309 309 310 308 299 297 297 299 299 299 300 300 301 302 300 293 289 288 287 289 284 276 277 280 278 278 280 281
198 214 240 263 285 294 297 300 301 301 302 302 301 301 302 302 302 302 301 297 294 293 294 293 293 292 292 292 293 292 291 288 284 284 287 287 278 277 277 276 276 276 276
222 240 260 278 290 294 298 301 300 301 301 300 299 299 298 298 297 297 296 294 292 291 291 290 289 288 287 287 287 287 286 285 283 281 283 284 279 279 276 274 274 274 274
237 254 270 282 293 297 296 298 299 300 300 300 300 300 300 298 297 296 296 294 293 291 290 289 288 287 286 286 285 284 283 282 281 279 278 278 279 276 273 272 272 271 272
247 263 276 285 293 296 297 298 298 300 300 300 301 301 300 299 298 297 296 295 293 291 289 287 287 286 285 285 285 285 283 282 281 279 277 275 274 274 272 270 270 269 269
258 272 281 288 293 296 296 297 298 299 300 301 301 301 299 298 297 295 295 294 292 291 290 288 287 285 283 282 283 283 282 281 279 278 277 275 274 271 270 268 266 267 268
266 277 285 290 293 295 295 296 297 298 298 298 299 298 298 296 295 294 293 292 291 290 290 289 287 285 284 283 282 281 280 279 279 278 276 274 272 271 268 267 266 264 265
273 281 287 291 292 293 294 295 296 297 298 298 298 298 297 295 294 293 293 292 291 290 289 288 287 286 284 284 283 282 280 279 278 277 275 273 270 270 267 266 265 264 263
278 283 288 290 291 292 293 295 296 297 298 298 298 298 297 295 293 293 292 292 290 290 289 288 287 286 284 284 282 282 280 279 278 276 275 272 270 269 267 264 264 262 262
280 284 287 289 290 292 293 294 295 297 298 299 298 298 297 296 295 293 292 291 291 291 290 289 288 286 285 284 283 281 280 279 277 276 275 273 270 268 266 264 263 261 260
281 284 287 288 289 291 292 294 296 297 297 298 298 298 298 297 296 294 293 292 291 291 291 290 289 288 287 286 285 283 281 279 278 276 274 273 271 269 267 263 262 259 258
280 283 286 287 288 290 292 293 295 296 296 297 298 298 297 297 296 295 294 293 293 293 292 291 291 290 289 288 287 285 283 281 279 277 275 273 270 269 267 264 261 258 256
278 282 285 287 288 290 292 293 295 296 296 297 298 298 297 297 297 296 295 294 295 294 294 294 293 292 292 291 290 288 286 284 282 280 277 274 272 269 265 263 260 260 257
278 281 284 287 289 290 292 294 295 296 297 298 299 298 297 296 296 296 295 295 296 296 296 297 296 296 297 297 297 295 293 290 288 285 282 278 274 271 267 263 260 257 254
277 281 284 287 289 291 293 295 296 297 298 298 299 299 299 297 297 297 295 295 296 297 298 299 300 302 301 303 303 305 302 299 296 293 289 285 280 276 269 264 260 256 255
278 281 285 287 289 291 294 295 297 298 298 299 300 300 300 299 299 300 300 299 299 300 302 304 305 306 306 309 307 308 309 310 308 304 296 289 284 279 274 267 262 257 253
277 282 286 288 289 292 294 296 297 298 299 299 301 301 301 300 300 302 302 302 302 303 304 307 310 312 311 313 314 310 314 314 317 313 306 294 288 282 278 272 264 258 253
279 283 286 287 290 292 294 296 296 298 299 299 299 299 298 299 300 301 301 303 303 305 308 310 314 317 317 317 318 317 316 317 321 323 317 304 296 288 282 277 268 260 252
281 284 286 287 290 292 293 294 296 296 296 297 297 296 295 296 297 298 300 304 305 308 311 313 316 318 318 318 320 320 322 324 325 328 326 311 305 300 290 280 271 261 255
284 286 286 287 288 290 292 292 294 294 294 293 293 291 291 290 292 294 298 303 307 310 313 314 316 317 318 320 324 323 324 329 331 335 336 324 314 302 301 285 270 260 257